Location: �clusier
(49.9361°N, 2.7869°E)
Time: 08:42:27
(UTC+00:00)

Cosmos 2322 Rocket - Pass Details

Date: 16 June 2021
Orbit: 833 x 850 km, 71.0° (Epoch: 02 August)

Event Time Altitude Azimuth Distance (km) Brightness Sun altitude
Rises 21:44:15 0° 221° (SW) 3,402 5.1 -11.6°
Reaches altitude 10° 21:46:45 10° 225° (SW) 2,472 4.5 -11.8°
Maximum altitude 21:52:20 57° 304° (NW) 1,000 2.9 -12.2°
Drops below altitude 10° 21:57:58 10° 23° (NNE) 2,488 5.2 -12.6°
Sets 22:00:29 0° 28° (NNE) 3,426 5.9 -12.8°
